Wind_Speed
6 6 6 6 6 7 6 6 6 6 6 7 7 7 6 6 7 6 7 8 9 10 10 11 11 11 11 11 10 10 10 9 10 10 10 9 9 9 9 9 7 7 7
7 7 7 7 7 7 8 8 7 8 7 7 8 8 8 7 8 9 8 8 9 10 11 12 12 12 11 12 11 12 12 12 11 10 11 10 10 10 10 10 10 9 8
8 9 8 8 8 8 9 9 9 9 9 8 8 9 9 8 8 10 10 10 10 10 11 11 11 11 12 12 13 13 13 13 12 12 12 11 11 11 11 11 11 10 10
9 9 9 9 10 9 9 9 10 10 9 9 9 10 9 9 10 10 11 11 12 12 13 12 12 12 13 13 13 13 13 13 13 13 13 13 12 12 11 11 11 10 10
10 10 9 9 10 10 9 10 10 10 10 10 10 11 11 10 11 12 12 13 13 13 14 14 14 14 14 14 14 14 14 13 13 14 13 13 13 12 12 12 11 10 9
10 11 10 10 10 10 10 10 10 10 10 10 11 11 11 12 12 13 13 13 13 13 14 15 16 16 15 16 16 16 16 15 15 14 14 13 13 13 12 12 12 11 11
12 11 11 10 10 11 11 11 11 11 11 11 12 12 12 13 13 14 14 14 14 14 15 15 16 17 17 17 17 17 17 17 17 16 16 15 14 13 13 13 12 12 12
13 12 12 12 11 11 12 12 12 12 12 13 13 13 14 14 15 15 15 15 15 15 15 16 16 18 18 18 18 19 18 18 18 18 18 16 15 15 14 13 14 13 13
13 13 13 13 12 12 12 13 13 13 13 13 14 15 15 15 14 15 16 16 17 16 16 17 17 18 18 18 18 19 19 19 19 19 18 18 17 17 16 15 15 15 14
13 13 13 13 13 13 13 13 13 14 14 14 14 15 15 15 16 16 17 17 18 17 18 18 19 19 19 18 19 19 19 20 20 19 19 18 18 17 17 17 17 16 15
13 14 13 13 13 13 14 14 15 15 15 15 16 16 16 16 17 17 18 19 19 19 20 20 20 20 20 20 20 20 21 21 21 21 21 20 20 19 19 18 17 16 16
14 14 14 14 14 14 14 15 16 16 17 17 17 17 17 17 18 18 19 20 20 21 22 22 21 21 21 21 22 22 22 22 23 22 22 22 21 21 20 20 19 18 18
15 15 15 15 16 16 16 15 16 17 18 18 18 19 19 19 20 20 20 21 21 21 22 23 23 22 22 22 23 24 23 24 24 24 24 23 22 22 22 21 20 20 19
16 16 15 15 16 17 17 17 16 18 18 18 18 19 20 20 21 21 21 21 21 21 22 22 22 22 21 22 22 23 24 24 24 24 24 24 23 23 23 22 21 21 21
18 17 16 16 16 17 17 17 17 17 18 19 19 19 20 21 22 22 23 23 24 23 23 22 22 22 22 22 22 22 22 23 24 24 24 24 23 24 24 23 23 22 22
18 18 17 17 17 17 18 18 18 18 18 18 19 20 21 22 22 23 25 25 25 25 24 23 22 22 23 22 23 22 22 22 23 23 24 25 25 25 25 24 24 24 24
19 19 18 18 18 18 19 19 19 19 19 20 20 21 21 22 22 23 24 24 24 24 24 23 23 22 22 22 23 23 23 23 24 24 25 26 26 27 26 26 26 26 26
20 20 20 19 19 19 20 20 20 20 20 21 22 22 22 22 23 23 23 23 24 24 24 23 23 23 22 22 23 23 23 24 25 25 25 26 27 27 27 27 27 27 27
21 21 21 20 20 21 21 21 21 22 21 22 22 23 23 23 23 23 23 23 24 25 25 25 24 24 24 25 25 25 25 26 26 27 27 27 27 27 28 28 27 28 28
23 23 22 22 22 22 23 23 23 23 22 22 23 23 24 24 24 24 24 25 25 25 26 26 26 26 26 26 26 26 27 27 28 28 29 28 28 28 28 27 28 28 29
24 24 23 23 24 24 24 25 25 24 24 23 24 24 25 25 25 25 25 25 26 26 26 26 26 26 26 26 26 26 27 27 28 28 29 29 30 30 29 29 29 29 28
26 25 25 25 25 25 25 25 25 25 25 24 24 25 26 27 26 26 26 26 26 26 27 27 27 27 27 27 27 27 27 27 27 27 28 28 28 28 28 28 29 29 29
26 26 26 26 26 25 25 26 27 27 25 25 25 25 25 25 26 26 27 27 27 27 27 27 27 27 26 26 27 27 26 26 26 26 27 27 26 26 26 27 28 28 28
27 27 27 27 27 26 26 26 26 25 25 25 25 25 26 27 27 27 27 26 26 26 26 26 26 26 27 26 26 26 26 26 26 27 27 27 26 26 25 26 27 28 28
28 28 28 28 28 28 28 26 26 25 26 26 26 27 27 27 28 27 27 26 26 26 26 27 27 27 26 26 26 26 26 27 27 27 27 27 27 28 28 27 28 28 28
28 28 28 28 28 28 27 26 26 26 27 27 28 28 28 28 28 28 27 27 26 26 27 28 27 27 27 26 27 27 27 27 27 27 27 27 27 27 28 28 29 29 29
Wind_Direction
310 303 294 288 284 279 274 277 282 276 275 280 268 266 268 263 262 264 264 262 262 263 263 263 265 267 266 266 269 272 276 279 280 280 282 281 284 288 285 280 279 279 278
310 304 296 289 288 282 277 275 274 272 275 276 275 270 268 269 273 272 272 269 267 266 265 265 265 268 268 265 266 273 276 278 279 280 279 279 281 282 280 282 279 279 279
308 304 300 290 287 285 280 276 273 271 273 278 283 282 272 274 280 278 274 270 270 269 269 271 270 269 267 265 264 267 272 277 278 278 279 276 278 279 279 282 280 279 277
307 303 297 289 288 286 284 276 275 274 274 277 282 281 278 280 283 282 274 271 269 268 268 270 271 272 270 266 266 266 267 272 274 277 278 277 278 278 279 282 280 279 276
317 309 298 293 292 290 285 280 277 277 278 279 282 281 279 279 281 284 279 275 271 270 269 268 270 270 269 268 268 268 268 271 273 275 278 276 276 279 279 276 278 276 277
317 312 306 303 297 295 295 297 291 286 283 281 282 283 283 281 282 285 285 280 276 276 275 271 269 269 268 269 269 269 268 268 271 272 274 273 274 276 278 276 277 272 273
315 313 308 301 295 294 295 294 294 290 287 282 281 282 281 281 282 283 283 283 283 280 278 274 272 271 269 271 270 269 268 267 268 269 268 269 270 271 274 276 277 274 272
313 312 307 302 296 293 293 294 294 291 289 285 283 282 281 282 282 281 282 284 284 283 283 281 276 273 272 273 271 269 267 266 266 266 266 267 268 268 271 272 274 272 272
310 310 308 304 298 294 291 292 292 290 288 287 286 287 285 285 285 285 284 283 283 283 285 286 285 280 277 275 273 271 270 266 266 267 266 264 265 267 268 269 271 271 272
311 311 308 304 300 295 292 290 290 289 288 288 287 287 286 285 285 285 287 286 285 285 285 286 285 281 278 273 272 271 270 269 266 265 264 263 266 268 269 268 267 268 268
315 314 311 307 304 299 295 290 288 288 288 288 287 288 287 285 284 285 286 287 286 286 285 285 284 283 278 274 271 271 270 268 266 264 263 264 265 267 267 267 268 266 265
319 316 312 309 307 304 296 291 287 287 287 288 288 286 286 286 285 286 285 285 287 286 283 284 284 282 278 275 272 272 270 268 267 264 263 263 264 265 264 266 265 264 265
321 317 310 306 305 304 299 292 289 288 288 287 288 287 285 285 286 285 285 286 287 286 285 285 284 281 278 275 273 270 270 268 266 264 263 262 261 263 263 266 264 263 264
324 320 315 311 309 305 303 298 292 291 290 288 288 288 286 285 286 286 285 283 286 288 288 285 283 282 279 277 276 274 270 269 266 264 262 261 261 262 263 263 263 263 263
320 320 317 314 312 310 308 304 298 296 295 291 289 290 290 287 285 285 286 284 285 287 287 287 282 280 280 278 277 273 271 269 266 265 263 263 264 264 263 261 261 262 263
319 318 317 315 312 309 307 304 300 298 297 298 296 293 292 291 287 285 283 285 286 285 285 285 283 279 275 275 274 272 270 270 270 266 264 263 265 266 262 260 260 260 261
321 320 317 315 313 310 310 308 306 298 297 297 297 296 295 294 292 290 288 288 288 288 286 285 282 278 276 274 272 271 269 270 269 267 264 263 263 263 262 261 260 259 260
322 321 317 313 311 309 308 307 305 303 298 297 297 298 298 295 293 291 290 288 287 287 287 284 282 281 279 275 272 269 268 267 265 266 265 264 263 263 262 262 261 259 259
318 318 316 312 309 308 306 305 303 302 299 297 296 296 297 297 293 291 290 288 286 285 286 285 282 280 279 277 273 271 270 269 266 264 265 265 264 263 263 261 261 260 260
315 314 313 311 309 308 307 305 303 300 298 297 296 296 295 294 293 292 291 290 287 284 284 283 283 281 279 277 275 274 272 270 270 268 266 265 263 263 263 261 260 260 262
313 313 311 309 308 307 306 305 303 300 299 297 295 295 294 294 293 292 290 289 288 286 283 282 281 280 279 277 276 275 275 273 271 269 267 266 263 262 263 263 261 261 261
313 312 311 309 309 308 309 307 305 303 301 299 296 294 293 294 294 291 290 289 288 288 287 285 283 281 278 278 278 276 275 273 271 269 268 267 264 263 263 261 260 260 260
310 311 311 309 309 310 310 308 307 305 303 301 300 297 297 296 295 292 290 289 288 287 286 285 285 283 282 280 278 276 275 274 272 271 270 269 267 265 262 261 260 260 259
307 308 309 309 310 310 308 305 304 304 304 303 301 300 298 298 297 295 293 291 290 287 285 284 284 284 283 282 282 278 276 274 274 271 268 268 267 265 263 262 262 260 258
306 307 308 309 308 307 307 305 304 305 305 304 301 301 301 299 298 297 295 293 291 289 287 285 285 285 285 284 283 282 277 273 273 271 270 269 267 266 264 262 260 260 258
305 306 307 307 306 306 306 306 306 304 303 302 301 300 299 299 298 298 295 293 291 290 289 288 287 286 284 283 282 280 278 273 272 270 268 269 269 268 266 264 260 257 256
Height
5877 5877 5876 5876 5876 5876 5876 5876 5876 5877 5877 5876 5877 5877 5877 5878 5878 5878 5879 5879 5880 5880 5881 5881 5882 5882 5882 5883 5883 5883 5884 5884 5884 5884 5884 5884 5884 5883 5883 5883 5883 5883 5884
5876 5876 5875 5875 5874 5875 5875 5875 5875 5875 5875 5875 5875 5875 5876 5876 5876 5876 5877 5877 5878 5878 5878 5878 5879 5879 5880 5880 5881 5881 5881 5882 5882 5882 5882 5882 5882 5882 5882 5882 5881 5882 5882
5875 5875 5874 5873 5873 5873 5873 5873 5873 5873 5874 5874 5874 5874 5874 5874 5874 5874 5874 5875 5875 5875 5876 5876 5876 5877 5877 5878 5878 5878 5879 5879 5879 5880 5880 5880 5880 5879 5879 5879 5880 5880 5880
5873 5873 5872 5872 5871 5871 5871 5871 5872 5871 5872 5872 5872 5872 5872 5872 5872 5871 5871 5872 5872 5873 5873 5873 5873 5874 5874 5875 5875 5875 5876 5876 5877 5877 5877 5877 5877 5877 5877 5877 5877 5877 5877
5872 5871 5870 5870 5870 5870 5870 5869 5870 5870 5870 5870 5870 5870 5870 5870 5870 5869 5869 5869 5869 5869 5870 5870 5871 5871 5871 5872 5872 5873 5873 5873 5874 5874 5874 5874 5874 5874 5874 5875 5875 5875 5875
5871 5870 5869 5868 5868 5868 5867 5867 5867 5867 5867 5867 5867 5867 5867 5867 5867 5867 5866 5866 5866 5866 5866 5867 5867 5867 5868 5868 5869 5869 5869 5870 5870 5871 5871 5871 5871 5871 5872 5872 5872 5872 5872
5869 5868 5867 5866 5866 5866 5865 5865 5865 5865 5865 5864 5864 5864 5864 5864 5864 5863 5863 5863 5863 5863 5862 5863 5863 5864 5864 5864 5865 5865 5865 5866 5866 5867 5867 5868 5868 5868 5868 5868 5869 5869 5869
5867 5866 5865 5864 5864 5863 5863 5863 5862 5862 5862 5861 5861 5861 5861 5862 5861 5860 5859 5859 5859 5859 5859 5859 5859 5859 5859 5860 5860 5860 5861 5861 5862 5863 5863 5864 5864 5865 5865 5865 5865 5865 5866
5865 5864 5863 5862 5861 5861 5860 5860 5860 5859 5859 5858 5858 5858 5857 5857 5857 5857 5856 5856 5856 5856 5856 5855 5855 5854 5855 5855 5855 5855 5856 5856 5857 5858 5859 5859 5860 5861 5861 5861 5862 5862 5862
5862 5861 5860 5859 5858 5858 5857 5857 5857 5856 5856 5855 5854 5854 5854 5853 5853 5853 5852 5852 5851 5851 5851 5851 5850 5850 5850 5850 5850 5850 5851 5851 5852 5853 5854 5855 5856 5856 5856 5857 5857 5858 5858
5860 5859 5857 5856 5855 5854 5854 5853 5853 5853 5852 5852 5851 5850 5850 5849 5849 5849 5849 5848 5847 5846 5846 5846 5845 5845 5845 5844 5844 5845 5845 5846 5847 5847 5848 5850 5851 5851 5852 5852 5853 5853 5854
5858 5856 5855 5854 5852 5851 5851 5850 5850 5849 5849 5848 5847 5846 5846 5845 5845 5844 5844 5843 5842 5841 5840 5840 5839 5839 5839 5839 5839 5839 5840 5840 5841 5842 5843 5844 5845 5846 5847 5847 5848 5848 5849
5856 5854 5852 5851 5850 5849 5847 5846 5846 5845 5844 5843 5843 5842 5841 5841 5840 5840 5839 5838 5837 5836 5835 5834 5833 5833 5833 5833 5833 5833 5834 5834 5835 5836 5837 5838 5839 5840 5841 5842 5842 5843 5844
5853 5851 5849 5848 5847 5845 5844 5843 5842 5841 5840 5839 5838 5837 5836 5836 5835 5834 5833 5833 5832 5831 5830 5828 5827 5827 5827 5827 5827 5827 5827 5828 5829 5829 5830 5831 5832 5834 5835 5836 5837 5837 5838
5851 5848 5846 5845 5844 5842 5841 5839 5838 5836 5835 5834 5833 5832 5831 5831 5830 5829 5828 5827 5826 5825 5824 5823 5821 5821 5821 5821 5821 5821 5821 5822 5822 5823 5824 5825 5826 5827 5828 5829 5830 5831 5832
5848 5846 5844 5842 5840 5839 5837 5835 5834 5832 5831 5829 5828 5827 5826 5825 5824 5823 5822 5820 5819 5818 5817 5817 5815 5814 5814 5814 5814 5814 5815 5815 5816 5817 5818 5819 5820 5820 5821 5822 5824 5825 5825
5845 5843 5841 5839 5837 5835 5833 5831 5829 5827 5826 5825 5823 5822 5821 5820 5818 5817 5815 5814 5813 5812 5811 5810 5809 5808 5808 5808 5808 5808 5808 5809 5810 5810 5811 5812 5813 5813 5814 5815 5816 5817 5818
5842 5839 5837 5835 5833 5831 5829 5827 5825 5823 5821 5820 5818 5817 5815 5814 5812 5811 5810 5808 5807 5805 5804 5804 5803 5802 5802 5801 5801 5801 5802 5803 5803 5803 5804 5804 5805 5806 5807 5808 5808 5809 5810
5838 5836 5833 5831 5829 5827 5824 5822 5820 5818 5816 5815 5813 5811 5810 5808 5806 5805 5803 5802 5800 5799 5798 5797 5796 5795 5795 5794 5794 5794 5794 5794 5795 5796 5796 5797 5797 5798 5799 5800 5801 5801 5802
5834 5831 5829 5827 5824 5822 5819 5817 5815 5812 5810 5809 5807 5805 5803 5802 5800 5798 5797 5795 5794 5792 5791 5790 5789 5788 5788 5787 5787 5787 5787 5786 5787 5787 5788 5788 5789 5790 5791 5791 5793 5794 5794
5829 5827 5824 5822 5819 5817 5814 5811 5809 5807 5805 5803 5801 5799 5797 5795 5793 5792 5790 5788 5787 5785 5784 5783 5781 5781 5780 5779 5779 5778 5778 5778 5778 5778 5779 5779 5780 5781 5782 5783 5784 5785 5786
5824 5822 5819 5816 5813 5810 5808 5805 5803 5800 5798 5796 5794 5792 5790 5788 5786 5784 5782 5781 5779 5778 5776 5775 5774 5773 5772 5771 5770 5770 5770 5770 5770 5770 5770 5771 5771 5772 5773 5774 5775 5776 5777
5819 5816 5814 5810 5807 5804 5801 5799 5796 5794 5791 5789 5787 5785 5783 5780 5778 5776 5775 5773 5771 5770 5768 5767 5766 5764 5764 5763 5762 5761 5761 5760 5761 5761 5761 5762 5763 5763 5764 5765 5766 5767 5768
5813 5810 5808 5804 5801 5799 5796 5793 5791 5788 5785 5783 5780 5778 5775 5773 5771 5768 5767 5765 5763 5761 5760 5759 5757 5756 5755 5754 5753 5753 5752 5752 5752 5752 5752 5753 5754 5754 5755 5756 5757 5758 5759
5807 5804 5801 5798 5795 5793 5790 5787 5784 5781 5779 5776 5773 5771 5768 5766 5763 5761 5759 5757 5755 5753 5752 5750 5749 5748 5746 5745 5744 5744 5744 5743 5743 5744 5744 5744 5744 5745 5746 5747 5748 5749 5750
5800 5797 5795 5792 5789 5786 5783 5780 5777 5775 5772 5770 5767 5764 5761 5758 5755 5753 5750 5748 5747 5745 5743 5742 5741 5739 5738 5737 5736 5735 5735 5734 5734 5735 5735 5735 5735 5736 5737 5738 5738 5739 5740